Philip, SD

8:45 AM MDT on March 26, 2017 (GMT -0600)
Philip

Weather History for KPHP - December, 2012

Change the Weather History Date:

Thursday, December 20, 2012

  Actual Average Record
Temperature  
Mean Temperature 23 °F 22 °F  
Max Temperature 41 °F 34 °F 60 °F (1957)
Min Temperature 4 °F 9 °F -21 °F (1951)
Degree Days  
Heating Degree Days 42 43  
Month to date heating degree days 712 822  
Since 1 July heating degree days 2185 2457  
Cooling Degree Days 0 0  
Month to date cooling degree days 0 0  
Year to date cooling degree days 1202 818  
Moisture  
Dew Point 8 °F    
Average Humidity 57    
Maximum Humidity 88    
Minimum Humidity 25    
Precipitation  
Precipitation 0.00 in 0.01 in 0.19 in (1967)
Month to date precipitation 0.19 0.28  
Year to date precipitation 7.14 17.20  
Sea Level Pressure  
Sea Level Pressure 30.20 in    
Wind  
Wind Speed 5 mph (West)    
Max Wind Speed 15 mph    
Max Gust Speed 17 mph    
Visibility 10 miles    
Events      
T = Trace of Precipitation, MM = Missing Value Source: NWS Daily Summary

Daily Weather History Graph

Daily Weather History Graph

Search for Another Location

Airport or City:

Trip Planner

Search our weather history database for the weather conditions in past years. The results will help you decide how hot, cold, wet, or windy it might be!

Date:

Astronomy

Dec. 20, 2012 Rise Set
Actual Time 7:17 AM MST 4:10 PM MST
Civil Twilight 6:44 AM MST 4:43 PM MST
Nautical Twilight 6:08 AM MST 5:20 PM MST
Astronomical Twilight 5:32 AM MST 5:55 PM MST
Moon 11:40 AM MST (12/20) No Moon Set
Length of Visible Light 9h 59m
Length of Day
8h 52m
First Quarter, 56% of the Moon is Illuminated
Dec 20
First Quarter
Dec 28
Full
Jan 4
Last Quarter
Jan 11
New
Jan 18
First Quarter

Hourly Weather History & Observations

Time (MST) Temp. Windchill Dew Point Humidity Pressure Visibility Wind Dir Wind Speed Gust Speed Precip Events Conditions
12:55 AM 7.0 °F -3.3 °F 3.9 °F 87% 30.21 in 10.0 mi WNW 5.8 mph - N/A   Clear
1:55 AM 5.0 °F -5.6 °F 1.9 °F 87% 30.22 in 10.0 mi West 5.8 mph - N/A   Clear
2:55 AM 5.0 °F -6.9 °F 1.0 °F 84% 30.23 in 10.0 mi West 6.9 mph - N/A   Clear
3:55 AM 5.0 °F -5.6 °F 1.9 °F 87% 30.23 in 10.0 mi WNW 5.8 mph - N/A   Clear
4:55 AM 5.0 °F -4.1 °F 1.0 °F 84% 30.23 in 10.0 mi West 4.6 mph - N/A   Clear
5:55 AM 7.0 °F -3.3 °F 1.9 °F 80% 30.23 in 10.0 mi West 5.8 mph - N/A   Clear
6:55 AM 7.0 °F -1.7 °F 1.0 °F 77% 30.23 in 10.0 mi WNW 4.6 mph - N/A   Clear
7:55 AM 10.9 °F -4.7 °F 3.9 °F 73% 30.26 in 10.0 mi West 13.8 mph - N/A   Clear
8:55 AM 15.1 °F 1.8 °F 8.1 °F 74% 30.26 in 10.0 mi West 11.5 mph - N/A   Clear
9:55 AM 21.0 °F 9.9 °F 10.9 °F 65% 30.25 in 10.0 mi WSW 10.4 mph - N/A   Clear
10:55 AM 27.0 °F 18.7 °F 14.0 °F 58% 30.22 in 10.0 mi West 8.1 mph - N/A   Clear
11:55 AM 32.0 °F 25.6 °F 12.9 °F 45% 30.19 in 10.0 mi WSW 6.9 mph - N/A   Clear
12:55 PM 37.9 °F 32.7 °F 12.0 °F 35% 30.15 in 10.0 mi WSW 6.9 mph - N/A   Clear
1:55 PM 41.0 °F 35.2 °F 9.0 °F 27% 30.14 in 10.0 mi West 9.2 mph - N/A   Clear
2:55 PM 39.9 °F 35.1 °F 10.9 °F 31% 30.14 in 10.0 mi WSW 6.9 mph - N/A   Clear
3:55 PM 37.9 °F - 10.9 °F 33% 30.15 in 10.0 mi Calm Calm - N/A   Clear
4:55 PM 28.9 °F 25.2 °F 12.0 °F 49% 30.17 in 10.0 mi WSW 3.5 mph - N/A   Clear
5:55 PM 23.0 °F 17.0 °F 12.9 °F 65% 30.17 in 10.0 mi WNW 4.6 mph - N/A   Clear
6:55 PM 18.0 °F - 12.0 °F 78% 30.19 in 10.0 mi Calm Calm - N/A   Clear
7:55 PM 17.1 °F - 10.9 °F 77% 30.20 in 10.0 mi Calm Calm - N/A   Clear
8:55 PM 14.0 °F - 9.0 °F 80% 30.21 in 10.0 mi Calm Calm - N/A   Clear
9:55 PM 10.9 °F - 7.0 °F 84% 30.22 in 10.0 mi Calm Calm - N/A   Clear
10:55 PM 10.9 °F 4.7 °F 6.1 °F 81% 30.20 in 10.0 mi WSW 3.5 mph - N/A   Clear
11:55 PM 10.9 °F - 6.1 °F 81% 30.20 in 10.0 mi Calm Calm - N/A   Clear